| time (UTC) | temp F | wind direction | speed MPH | gust MPH | rain 1hr in | rain 24hr in | rain mn in | humidity % | barometer mb |
| 20260904205932 | 86 | 342 | 2.0 | 6.0 | 0.00 | 0.00 | 0.00 | 78 | 1007.2 |
| 20260904204858 | 85 | 48 | 1.0 | 4.0 | 0.00 | 0.00 | 0.00 | 77 | 1007.3 |
| 20260904204505 | 85 | 39 | 2.0 | 8.0 | 0.00 | 0.00 | 0.00 | 77 | 1007.4 |
| 20260904203824 | 85 | 23 | 3.0 | 7.0 | 0.00 | 0.00 | 0.00 | 79 | 1007.3 |
| 20260904203109 | 84 | 7 | 4.0 | 8.0 | 0.00 | 0.00 | 0.00 | 78 | 1007.3 |
| 20260904201638 | 85 | 339 | 2.0 | 7.0 | 0.00 | 0.00 | 0.00 | 80 | 1007.2 |
| 20260904201503 | 84 | 37 | 4.0 | 8.0 | 0.00 | 0.00 | 0.00 | 79 | 1007.3 |
| 20260904200625 | 84 | 79 | 2.0 | 9.0 | 0.00 | 0.00 | 0.00 | 80 | 1007.3 |
| 20260904200106 | 83 | 42 | 2.0 | 9.0 | 0.00 | 0.00 | 0.00 | 82 | 1007.3 |
| 20260904195624 | 84 | 34 | 3.0 | 9.0 | 0.00 | 0.00 | 0.00 | 79 | 1007.2 |
| 20260904194503 | 84 | 45 | 3.0 | 8.0 | 0.00 | 0.00 | 0.00 | 80 | 1007.3 |
| 20260904193456 | 84 | 46 | 3.0 | 8.0 | 0.00 | 0.00 | 0.00 | 81 | 1007.4 |
| 20260904193103 | 84 | 25 | 5.0 | 9.0 | 0.00 | 0.00 | 0.00 | 80 | 1007.3 |
| 20260904192505 | 84 | 55 | 3.0 | 9.0 | 0.00 | 0.00 | 0.00 | 80 | 1007.3 |
| 20260904191503 | 83 | 46 | 3.0 | 10.0 | 0.00 | 0.00 | 0.00 | 80 | 1007.5 |
| 20260904191430 | 84 | 5 | 4.0 | 9.0 | 0.00 | 0.00 | 0.00 | 80 | 1007.4 |
| 20260904190435 | 84 | 340 | 3.0 | 10.0 | 0.00 | 0.00 | 0.00 | 81 | 1007.4 |
| 20260904190109 | 84 | 349 | 3.0 | 8.0 | 0.00 | 0.00 | 0.00 | 82 | 1007.5 |
| 20260904185358 | 84 | 18 | 5.0 | 10.0 | 0.00 | 0.00 | 0.00 | 80 | 1007.4 |
| 20260904184503 | 84 | 326 | 4.0 | 9.0 | 0.00 | 0.00 | 0.00 | 80 | 1007.3 |
| 20260904184358 | 84 | 3 | 3.0 | 8.0 | 0.00 | 0.00 | 0.00 | 80 | 1007.3 |
| 20260904183418 | 84 | 70 | 2.0 | 8.0 | 0.00 | 0.00 | 0.00 | 83 | 1007.3 |
| 20260904183115 | 83 | 50 | 4.0 | 9.0 | 0.00 | 0.00 | 0.00 | 82 | 1007.3 |
| 20260904182418 | 84 | 54 | 4.0 | 13.0 | 0.00 | 0.00 | 0.00 | 85 | 1007.3 |
| 20260904181503 | 82 | 325 | 10.0 | 15.0 | 0.00 | 0.00 | 0.00 | 85 | 1007.4 |
| 20260904181418 | 82 | 336 | 8.0 | 14.0 | 0.00 | 0.00 | 0.00 | 84 | 1007.3 |
| 20260904180359 | 82 | 60 | 7.0 | 15.0 | 0.00 | 0.00 | 0.00 | 84 | 1007.3 |
| 20260904180110 | 82 | 354 | 8.0 | 16.0 | 0.00 | 0.00 | 0.00 | 85 | 1007.3 |
| 20260904175421 | 82 | 339 | 8.0 | 15.0 | 0.00 | 0.00 | 0.00 | 84 | 1007.3 |
| 20260904174505 | 82 | 7 | 7.0 | 15.0 | 0.00 | 0.30 | 0.00 | 85 | 1007.2 |
| 20260904174439 | 83 | 345 | 7.0 | 14.0 | 0.00 | 0.10 | 0.00 | 85 | 1007.2 |
| 20260904173411 | 83 | 344 | 8.0 | 15.0 | 0.00 | 0.29 | 0.00 | 84 | 1007.0 |
| 20260904173104 | 83 | 337 | 9.0 | 14.0 | 0.00 | 0.30 | 0.00 | 84 | 1007.1 |
| 20260904172351 | 83 | 30 | 10.0 | 15.0 | 0.00 | 0.29 | 0.00 | 85 | 1007.0 |
| 20260904171503 | 84 | 1 | 10.0 | 13.0 | 0.00 | 0.30 | 0.00 | 84 | 1006.9 |
| 20260904171408 | 85 | 336 | 7.0 | 12.0 | 0.00 | 0.29 | 0.00 | 82 | 1006.9 |
| 20260904170418 | 85 | 318 | 5.0 | 10.0 | 0.00 | 0.29 | 0.00 | 80 | 1006.8 |
| 20260904165425 | 85 | 354 | 5.0 | 8.0 | 0.00 | 0.29 | 0.00 | 81 | 1006.8 |
| 20260904164502 | 85 | 326 | 5.0 | 9.0 | 0.00 | 0.43 | 0.00 | 80 | 1006.8 |
| 20260904164407 | 86 | 23 | 2.0 | 7.0 | 0.00 | 0.33 | 0.00 | 81 | 1006.7 |
| 20260904163345 | 84 | 316 | 3.0 | 7.0 | 0.00 | 0.33 | 0.00 | 82 | 1006.7 |
| 20260904163005 | 84 | 345 | 4.0 | 8.0 | 0.00 | 0.43 | 0.00 | 81 | 1006.7 |
| 20260904162344 | 85 | 23 | 1.0 | 6.0 | 0.00 | 0.34 | 0.00 | 82 | 1006.7 |
| 20260904161603 | 83 | 331 | 1.0 | 7.0 | 0.00 | 0.43 | 0.00 | 85 | 1006.6 |
| 20260904161403 | 83 | 51 | 3.0 | 6.0 | 0.00 | 0.41 | 0.00 | 84 | 1006.6 |
| 20260904160420 | 83 | 320 | 2.0 | 5.0 | 0.00 | 0.42 | 0.00 | 86 | 1006.5 |
| 20260904160002 | 82 | 311 | 2.0 | 6.0 | 0.00 | 0.43 | 0.00 | 86 | 1006.5 |
| 20260904155411 | 82 | 321 | 2.0 | 5.0 | 0.00 | 0.42 | 0.00 | 85 | 1006.4 |
| 20260904154602 | 82 | 275 | 2.0 | 4.0 | 0.00 | 0.43 | 0.00 | 85 | 1006.5 |
| 20260904153003 | 81 | 321 | 1.0 | 6.0 | 0.00 | 0.43 | 0.00 | 86 | 1006.4 |
| 20260904152052 | 81 | 356 | 1.0 | 4.0 | 0.00 | 0.42 | 0.00 | 86 | 1006.2 |
| 20260904151603 | 81 | 328 | 1.0 | 5.0 | 0.00 | 0.43 | 0.00 | 87 | 1006.1 |
| 20260904151045 | 81 | 277 | 0.0 | 2.0 | 0.00 | 0.42 | 0.00 | 86 | 1006.1 |
| 20260904150025 | 81 | 310 | 0.0 | 2.0 | 0.00 | 0.42 | 0.00 | 86 | 1006.2 |
| 20260904150007 | 81 | 309 | 1.0 | 3.0 | 0.00 | 0.43 | 0.00 | 86 | 1006.2 |
| 20260904145035 | 80 | 203 | 0.0 | 3.0 | 0.00 | 0.42 | 0.00 | 87 | 1006.2 |
| 20260904144602 | 80 | 259 | 2.0 | 4.0 | 0.00 | 0.43 | 0.00 | 88 | 1006.2 |
| 20260904144004 | 79 | 285 | 1.0 | 4.0 | 0.00 | 0.42 | 0.00 | 88 | 1006.1 |
| 20260904143016 | 79 | 313 | 1.0 | 3.0 | 0.00 | 0.42 | 0.00 | 88 | 1006.1 |
| 20260904143002 | 79 | 313 | 1.0 | 4.0 | 0.00 | 0.43 | 0.00 | 88 | 1006.2 |
| 20260904142004 | 79 | 276 | 0.0 | 2.0 | 0.00 | 0.42 | 0.00 | 88 | 1006.1 |
| 20260904141603 | 79 | 314 | 1.0 | 3.0 | 0.00 | 0.43 | 0.00 | 88 | 1006.3 |
| 20260904141001 | 80 | 307 | 0.0 | 1.0 | 0.00 | 0.42 | 0.00 | 86 | 1006.2 |
| 20260904140008 | 79 | 1 | 0.0 | 0.0 | 0.00 | 0.42 | 0.00 | 88 | 1006.1 |
| 20260904140002 | 78 | 1 | 0.0 | 3.0 | 0.00 | 0.43 | 0.00 | 88 | 1006.2 |
| 20260904135026 | 78 | 0 | 0.0 | 2.0 | 0.00 | 0.42 | 0.00 | 89 | 1006.0 |
| 20260904134604 | 78 | 316 | 1.0 | 2.0 | 0.00 | 0.43 | 0.00 | 88 | 1006.2 |
| 20260904134036 | 77 | 316 | 0.0 | 0.0 | 0.00 | 0.42 | 0.00 | 90 | 1006.1 |
| 20260904133003 | 76 | 300 | 0.0 | 3.0 | 0.00 | 0.43 | 0.00 | 91 | 1006.2 |
| 20260904131939 | 76 | 132 | 0.0 | 0.0 | 0.00 | 0.42 | 0.00 | 91 | 1006.1 |
| 20260904131605 | 75 | 120 | 0.0 | 3.0 | 0.00 | 0.43 | 0.00 | 92 | 1006.1 |
| 20260904130907 | 74 | 207 | 0.0 | 2.0 | 0.00 | 0.42 | 0.00 | 93 | 1005.9 |
| 20260904130002 | 73 | 338 | 0.0 | 4.0 | 0.00 | 0.43 | 0.00 | 93 | 1006.0 |
| 20260904125843 | 73 | 338 | 1.0 | 3.0 | 0.00 | 0.42 | 0.00 | 93 | 1006.0 |
| 20260904124903 | 73 | 335 | 2.0 | 5.0 | 0.00 | 0.42 | 0.00 | 93 | 1005.9 |
| 20260904124608 | 72 | 336 | 3.0 | 6.0 | 0.00 | 0.43 | 0.00 | 93 | 1005.9 |
| 20260904123857 | 73 | 341 | 2.0 | 5.0 | 0.00 | 0.42 | 0.00 | 93 | 1005.8 |
| 20260904123007 | 72 | 338 | 3.0 | 4.0 | 0.00 | 0.43 | 0.00 | 93 | 1005.6 |
| 20260904122827 | 73 | 330 | 0.0 | 2.0 | 0.00 | 0.42 | 0.00 | 93 | 1005.6 |
| 20260904121800 | 73 | 262 | 0.0 | 0.0 | 0.00 | 0.42 | 0.00 | 93 | 1005.5 |
| 20260904121603 | 73 | 262 | 0.0 | 0.0 | 0.00 | 0.43 | 0.00 | 93 | 1005.5 |
| 20260904120818 | 73 | 262 | 0.0 | 0.0 | 0.00 | 0.42 | 0.00 | 94 | 1005.3 |
| 20260904120002 | 72 | 262 | 0.0 | 1.0 | 0.00 | 0.57 | 0.00 | 94 | 1005.4 |
| 20260904115827 | 72 | 262 | 0.0 | 0.0 | 0.00 | 0.42 | 0.00 | 94 | 1005.3 |
| 20260904114850 | 73 | 236 | 1.0 | 3.0 | 0.00 | 0.42 | 0.00 | 94 | 1005.1 |
| 20260904114604 | 72 | 205 | 1.0 | 4.0 | 0.00 | 0.57 | 0.00 | 94 | 1005.1 |
| 20260904113900 | 72 | 209 | 2.0 | 3.0 | 0.00 | 0.42 | 0.00 | 95 | 1005.0 |
| 20260904113002 | 72 | 200 | 3.0 | 4.0 | 0.00 | 0.57 | 0.00 | 95 | 1005.0 |
| 20260904111752 | 72 | 155 | 1.0 | 3.0 | 0.00 | 0.51 | 0.00 | 95 | 1005.1 |
| 20260904111602 | 72 | 186 | 0.0 | 4.0 | 0.00 | 0.57 | 0.00 | 95 | 1005.1 |
| 20260904110813 | 72 | 203 | 1.0 | 3.0 | 0.00 | 0.58 | 0.00 | 95 | 1005.0 |
| 20260904110003 | 72 | 174 | 0.0 | 2.0 | 0.00 | 0.57 | 0.00 | 95 | 1005.1 |
| 20260904105755 | 72 | 173 | 0.0 | 1.0 | 0.00 | 0.58 | 0.00 | 96 | 1005.1 |
| 20260904104606 | 72 | 139 | 0.0 | 0.0 | 0.00 | 0.57 | 0.00 | 97 | 1005.1 |
| 20260904103633 | 72 | 139 | 0.0 | 0.0 | 0.00 | 0.58 | 0.00 | 96 | 1005.1 |
| 20260904103003 | 72 | 139 | 0.0 | 0.0 | 0.00 | 0.57 | 0.00 | 97 | 1005.1 |
| 20260904102638 | 72 | 139 | 0.0 | 0.0 | 0.00 | 0.58 | 0.00 | 97 | 1005.0 |
| 20260904101620 | 72 | 139 | 0.0 | 0.0 | 0.00 | 0.58 | 0.00 | 96 | 1005.0 |
| 20260904101610 | 71 | 139 | 0.0 | 0.0 | 0.00 | 0.57 | 0.00 | 96 | 1005.1 |
| 20260904100629 | 72 | 139 | 0.0 | 0.0 | 0.00 | 0.58 | 0.00 | 96 | 1004.9 |
| 20260904100003 | 72 | 139 | 0.0 | 0.0 | 0.00 | 0.57 | 0.00 | 96 | 1004.9 |
| 20260904095641 | 72 | 139 | 0.0 | 0.0 | 0.00 | 0.58 | 0.00 | 96 | 1004.9 |
| 20260904094608 | 72 | 139 | 0.0 | 0.0 | 0.00 | 0.58 | 0.00 | 96 | 1004.9 |
| 20260904094603 | 72 | 139 | 0.0 | 0.0 | 0.00 | 0.57 | 0.00 | 96 | 1005.0 |
| 20260904093614 | 72 | 139 | 0.0 | 0.0 | 0.00 | 0.58 | 0.00 | 96 | 1004.8 |
| 20260904093003 | 72 | 139 | 0.0 | 0.0 | 0.00 | 0.57 | 0.00 | 96 | 1004.8 |
| 20260904092620 | 72 | 139 | 0.0 | 0.0 | 0.00 | 0.58 | 0.00 | 96 | 1004.7 |
| 20260904091620 | 73 | 139 | 0.0 | 0.0 | 0.00 | 0.58 | 0.00 | 96 | 1004.6 |
| 20260904091602 | 72 | 139 | 0.0 | 0.0 | 0.00 | 0.57 | 0.00 | 96 | 1004.6 |
| 20260904090002 | 73 | 139 | 0.0 | 1.0 | 0.00 | 0.57 | 0.00 | 95 | 1004.5 |
| 20260904085509 | 73 | 139 | 0.0 | 0.0 | 0.00 | 0.58 | 0.00 | 95 | 1004.5 |
| 20260904084603 | 73 | 139 | 0.0 | 0.0 | 0.00 | 0.57 | 0.00 | 94 | 1004.5 |
| 20260904083346 | 74 | 139 | 0.0 | 0.0 | 0.00 | 0.58 | 0.00 | 94 | 1004.3 |
| 20260904083004 | 74 | 139 | 0.0 | 0.0 | 0.00 | 0.57 | 0.00 | 94 | 1004.4 |
| 20260904082345 | 74 | 139 | 0.0 | 0.0 | 0.00 | 0.58 | 0.00 | 94 | 1004.3 |
| 20260904081603 | 74 | 139 | 0.0 | 0.0 | 0.00 | 0.57 | 0.00 | 94 | 1004.3 |
| 20260904080237 | 75 | 139 | 0.0 | 0.0 | 0.00 | 0.58 | 0.00 | 94 | 1004.2 |
| 20260904080002 | 74 | 139 | 0.0 | 0.0 | 0.00 | 0.57 | 0.00 | 93 | 1004.3 |
| 20260904075247 | 75 | 139 | 0.0 | 0.0 | 0.00 | 0.58 | 0.00 | 93 | 1004.2 |
| 20260904074602 | 74 | 139 | 0.0 | 2.0 | 0.00 | 0.57 | 0.00 | 93 | 1004.3 |
| 20260904074233 | 75 | 139 | 0.0 | 0.0 | 0.00 | 0.58 | 0.00 | 93 | 1004.2 |
| 20260904073004 | 75 | 157 | 1.0 | 3.0 | 0.00 | 0.57 | 0.00 | 93 | 1004.2 |
| 20260904072127 | 75 | 160 | 0.0 | 3.0 | 0.00 | 0.58 | 0.00 | 93 | 1004.2 |
| 20260904071602 | 75 | 162 | 0.0 | 3.0 | 0.00 | 0.57 | 0.00 | 93 | 1004.3 |
| 20260904071142 | 76 | 144 | 0.0 | 3.0 | 0.00 | 0.58 | 0.00 | 93 | 1004.3 |
| 20260904070107 | 76 | 172 | 1.0 | 3.0 | 0.00 | 0.58 | 0.00 | 93 | 1004.3 |
| 20260904070005 | 75 | 154 | 1.0 | 4.0 | 0.00 | 0.57 | 0.00 | 93 | 1004.4 |
| 20260904065032 | 76 | 142 | 1.0 | 3.0 | 0.00 | 0.58 | 0.00 | 92 | 1004.3 |
| 20260904064602 | 75 | 174 | 1.0 | 4.0 | 0.00 | 0.57 | 0.00 | 92 | 1004.3 |
| 20260904064047 | 76 | 160 | 1.0 | 4.0 | 0.00 | 0.58 | 0.00 | 92 | 1004.3 |
| 20260904063002 | 76 | 159 | 2.0 | 5.0 | 0.00 | 0.57 | 0.00 | 92 | 1004.4 |
| 20260904061603 | 76 | 156 | 1.0 | 6.0 | 0.00 | 0.57 | 0.00 | 92 | 1004.4 |
| 20260904060103 | 76 | 144 | 3.0 | 6.0 | 0.00 | 0.57 | 0.00 | 91 | 1004.4 |
| 20260904054507 | 77 | 145 | 3.0 | 6.0 | 0.00 | 0.57 | 0.00 | 91 | 1004.4 |
| 20260904054502 | 77 | 146 | 2.0 | 4.0 | 0.00 | 0.58 | 0.00 | 91 | 1004.4 |
| 20260904053105 | 77 | 127 | 2.0 | 6.0 | 0.00 | 0.57 | 0.00 | 90 | 1004.4 |
| 20260904051503 | 77 | 127 | 3.0 | 6.0 | 0.00 | 0.57 | 0.00 | 90 | 1004.4 |
| 20260904051201 | 78 | 143 | 2.0 | 6.0 | 0.00 | 0.58 | 0.00 | 90 | 1004.2 |
| 20260904050200 | 78 | 158 | 3.0 | 6.0 | 0.00 | 0.58 | 0.00 | 90 | 1004.2 |
| 20260904050108 | 77 | 74 | 3.0 | 7.0 | 0.00 | 0.57 | 0.00 | 90 | 1004.3 |
| 20260904045153 | 78 | 122 | 2.0 | 3.0 | 0.00 | 0.58 | 0.58 | 90 | 1004.2 |
| 20260904044505 | 77 | 134 | 2.0 | 4.0 | 0.00 | 0.57 | 0.57 | 90 | 1004.4 |
| 20260904044204 | 78 | 136 | 1.0 | 3.0 | 0.00 | 0.58 | 0.58 | 90 | 1004.3 |
| 20260904043110 | 77 | 141 | 1.0 | 3.0 | 0.00 | 0.57 | 0.57 | 90 | 1004.3 |
| 20260904042035 | 78 | 158 | 0.0 | 1.0 | 0.00 | 0.58 | 0.58 | 89 | 1004.2 |
| 20260904041503 | 78 | 158 | 0.0 | 4.0 | 0.00 | 0.57 | 0.57 | 89 | 1004.2 |
| 20260904041021 | 78 | 158 | 0.0 | 4.0 | 0.00 | 0.58 | 0.58 | 89 | 1004.2 |
| 20260904040103 | 78 | 136 | 1.0 | 5.0 | 0.00 | 0.57 | 0.57 | 88 | 1004.3 |
| 20260904040022 | 79 | 136 | 1.0 | 4.0 | 0.00 | 0.58 | 0.58 | 88 | 1004.2 |
| 20260904035031 | 79 | 145 | 2.0 | 5.0 | 0.00 | 0.58 | 0.58 | 88 | 1004.1 |
| 20260904034502 | 78 | 212 | 3.0 | 6.0 | 0.00 | 0.57 | 0.57 | 88 | 1004.2 |
| 20260904034043 | 79 | 148 | 2.0 | 5.0 | 0.00 | 0.58 | 0.58 | 87 | 1004.2 |
| 20260904033102 | 78 | 176 | 2.0 | 6.0 | 0.00 | 0.57 | 0.57 | 87 | 1004.3 |
| 20260904033030 | 79 | 138 | 2.0 | 5.0 | 0.00 | 0.58 | 0.58 | 87 | 1004.2 |
| 20260904032052 | 79 | 141 | 1.0 | 5.0 | 0.00 | 0.58 | 0.58 | 87 | 1004.3 |
| 20260904031502 | 78 | 151 | 1.0 | 4.0 | 0.00 | 0.57 | 0.57 | 87 | 1004.4 |
| 20260904031056 | 79 | 127 | 1.0 | 3.0 | 0.00 | 0.58 | 0.58 | 87 | 1004.3 |
| 20260904030109 | 79 | 128 | 1.0 | 4.0 | 0.00 | 0.58 | 0.58 | 86 | 1004.3 |
| 20260904024503 | 79 | 158 | 3.0 | 6.0 | 0.00 | 0.57 | 0.57 | 86 | 1004.3 |
| 20260904023951 | 79 | 116 | 2.0 | 5.0 | 0.00 | 0.58 | 0.58 | 86 | 1004.2 |
| 20260904023102 | 78 | 103 | 2.0 | 6.0 | 0.00 | 0.57 | 0.57 | 86 | 1004.2 |
| 20260904021835 | 79 | 128 | 2.0 | 7.0 | 0.00 | 0.58 | 0.58 | 86 | 1004.0 |
| 20260904021505 | 79 | 97 | 3.0 | 8.0 | 0.00 | 0.57 | 0.57 | 86 | 1004.1 |
| 20260904015648 | 79 | 134 | 2.0 | 4.0 | 0.00 | 0.58 | 0.58 | 86 | 1003.8 |
| 20260904014657 | 79 | 110 | 1.0 | 3.0 | 0.00 | 0.58 | 0.58 | 86 | 1003.9 |
| 20260904014505 | 79 | 114 | 2.0 | 4.0 | 0.00 | 0.57 | 0.57 | 86 | 1004.0 |
| 20260904013716 | 80 | 113 | 1.0 | 2.0 | 0.00 | 0.58 | 0.58 | 85 | 1003.9 |
| 20260904013106 | 79 | 110 | 1.0 | 3.0 | 0.00 | 0.57 | 0.57 | 85 | 1003.9 |
| 20260904012711 | 80 | 112 | 1.0 | 2.0 | 0.00 | 0.58 | 0.58 | 85 | 1003.8 |
| 20260904011644 | 80 | 113 | 1.0 | 3.0 | 0.00 | 0.58 | 0.58 | 84 | 1003.7 |
| 20260904011503 | 80 | 113 | 2.0 | 4.0 | 0.00 | 0.57 | 0.57 | 84 | 1003.8 |
| 20260904010622 | 81 | 110 | 2.0 | 3.0 | 0.00 | 0.58 | 0.58 | 83 | 1003.5 |
| 20260904004520 | 82 | 124 | 3.0 | 7.0 | 0.00 | 0.58 | 0.58 | 80 | 1003.4 |
| 20260904004503 | 82 | 123 | 2.0 | 7.0 | 0.00 | 0.57 | 0.57 | 80 | 1003.5 |
| 20260904003525 | 83 | 114 | 3.0 | 7.0 | 0.00 | 0.58 | 0.58 | 79 | 1003.4 |
| 20260904003104 | 82 | 127 | 3.0 | 8.0 | 0.00 | 0.57 | 0.57 | 79 | 1003.5 |
| 20260904001504 | 83 | 104 | 3.0 | 7.0 | 0.00 | 0.57 | 0.57 | 78 | 1003.5 |
| 20260904001417 | 84 | 124 | 3.0 | 8.0 | 0.00 | 0.58 | 0.58 | 77 | 1003.4 |
| 20260904000340 | 84 | 137 | 3.0 | 8.0 | 0.00 | 0.58 | 0.58 | 77 | 1003.3 |
| 20260904000104 | 84 | 139 | 4.0 | 9.0 | 0.00 | 0.57 | 0.57 | 76 | 1003.4 |
| 20260903234505 | 85 | 112 | 3.0 | 7.0 | 0.00 | 0.57 | 0.57 | 74 | 1003.6 |
| 20260903234254 | 85 | 130 | 3.0 | 8.0 | 0.00 | 0.58 | 0.58 | 74 | 1003.5 |
| 20260903233253 | 86 | 120 | 4.0 | 12.0 | 0.00 | 0.58 | 0.58 | 72 | 1003.6 |
| 20260903233103 | 85 | 119 | 3.0 | 11.0 | 0.00 | 0.57 | 0.57 | 72 | 1003.7 |
| 20260903231503 | 86 | 76 | 4.0 | 10.0 | 0.00 | 0.57 | 0.57 | 71 | 1003.5 |
| 20260903231125 | 86 | 115 | 4.0 | 14.0 | 0.00 | 0.58 | 0.58 | 72 | 1003.3 |
| 20260903230126 | 86 | 146 | 6.0 | 14.0 | 0.00 | 0.58 | 0.58 | 72 | 1003.1 |
| 20260903230107 | 85 | 116 | 5.0 | 15.0 | 0.00 | 0.57 | 0.57 | 72 | 1003.0 |
| 20260903225104 | 86 | 115 | 5.0 | 14.0 | 0.00 | 0.58 | 0.58 | 71 | 1002.9 |
| 20260903224508 | 85 | 127 | 6.0 | 16.0 | 0.00 | 0.57 | 0.57 | 71 | 1002.9 |
| 20260903224118 | 86 | 134 | 6.0 | 14.0 | 0.00 | 0.58 | 0.58 | 70 | 1002.9 |
| 20260903223133 | 86 | 146 | 6.0 | 14.0 | 0.00 | 0.58 | 0.58 | 70 | 1002.7 |
| 20260903223103 | 86 | 127 | 6.0 | 15.0 | 0.00 | 0.57 | 0.57 | 71 | 1002.7 |
| 20260903222115 | 86 | 78 | 7.0 | 14.0 | 0.00 | 0.58 | 0.58 | 69 | 1002.8 |
| 20260903221503 | 86 | 100 | 6.0 | 14.0 | 0.00 | 0.57 | 0.57 | 68 | 1002.9 |
| 20260903221102 | 87 | 210 | 6.0 | 15.0 | 0.00 | 0.58 | 0.58 | 69 | 1002.9 |
| 20260903220121 | 86 | 164 | 6.0 | 12.0 | 0.00 | 0.57 | 0.57 | 69 | 1003.1 |
| 20260903214944 | 86 | 128 | 7.0 | 14.0 | 0.00 | 0.58 | 0.58 | 69 | 1003.1 |
| 20260903214602 | 86 | 150 | 6.0 | 15.0 | 0.00 | 0.57 | 0.57 | 69 | 1003.3 |
| 20260903213929 | 86 | 132 | 6.0 | 13.0 | 0.00 | 0.58 | 0.58 | 69 | 1003.4 |
| 20260903213002 | 86 | 179 | 9.0 | 14.0 | 0.00 | 0.57 | 0.57 | 70 | 1003.5 |
| 20260903212919 | 86 | 165 | 7.0 | 14.0 | 0.00 | 0.58 | 0.58 | 70 | 1003.4 |
| 20260903211903 | 86 | 146 | 7.0 | 14.0 | 0.00 | 0.58 | 0.58 | 70 | 1003.4 |
| 20260903211605 | 85 | 150 | 9.0 | 15.0 | 0.00 | 0.57 | 0.57 | 70 | 1003.5 |
| 20260903210849 | 85 | 129 | 6.0 | 15.0 | 0.00 | 0.58 | 0.58 | 71 | 1003.5 |